Location: Cuignières
(49.4515°N, 2.4730°E)
Time: 20:07:41
(UTC+00:00)

Daily predictions for brighter satellites

Satellite Brightness Start Highest point End
(mag) Time Altitude Azimuth Time Altitude Azimuth Time Altitude Azimuth
CENTAUR R/B 3.4 18:21:40 10° NW 18:29:31 61° NE 18:38:23 10° ESE
Cosmos 2056 Rocket 3.8 18:28:33 10° S 18:33:21 42° ESE 18:38:09 10° NE
SL-8 R/B 4.3 18:31:34 10° W 18:36:13 51° SSW 18:40:52 10° SE
Okean 3 3.6 18:38:07 10° N 18:42:15 53° ENE 18:46:24 10° SSE
Okean 1-7 3.2 18:39:07 10° N 18:43:25 54° ENE 18:47:42 10° SSE
Cosmos 1666 Rocket 4.2 18:41:08 10° SSW 18:45:29 62° WNW 18:49:49 10° N
Cosmos 1933 Rocket 3.9 18:42:07 10° SSE 18:46:10 41° E 18:50:15 10° NNE
Iridium 4 Rocket 4.1 18:43:01 10° NNE 18:46:27 24° ENE 18:49:49 10° SE
Cosmos 1624 Rocket 4.1 18:41:33 10° S 18:46:42 55° ESE 18:51:54 10° NNE
Cosmos 2098 Rocket 4.4 18:43:30 10° SSE 18:48:16 34° E 18:53:54 10° NNE
Meteor 1-11 Rocket 4.3 18:43:51 10° SSW 18:49:44 67° WNW 18:55:32 10° N
CSL-04 Rocket 4.2 18:44:40 10° SE 18:49:52 42° ENE 18:55:03 10° N
Cosmos 2322 Rocket 4.1 18:45:15 10° NW 18:50:19 34° WSW 18:55:22 10° SSW
In-Cosmos 22 4.2 18:44:46 10° N 18:50:25 75° ENE 18:56:09 10° SSE
Exosat Rocket 3.9 18:47:17 10° S 18:52:17 54° ESE 18:58:35 10° NNE
KORONAS-FOTON 3.8 18:48:50 10° N 18:52:37 63° ENE 18:56:24 10° SSE
Cosmos 1842 3.7 18:48:58 10° NNW 18:52:46 64° W 18:56:32 10° S
Cosmos 2237 Rocket 3.2 18:47:53 10° NNW 18:52:50 30° NE 18:57:25 11° ESE
Landsat 7 4.1 18:49:17 10° SE 18:53:46 45° ENE 18:58:15 10° N
Cosmos 1420 Rocket 4.0 18:48:45 10° S 18:53:53 59° ESE 18:59:00 10° NNE
GEOS 3 Rocket 3.7 18:49:09 10° NE 18:54:34 73° SE 18:59:57 10° SW
Meteor 1-21 4.3 18:50:01 10° N 18:55:35 62° ENE 19:01:11 10° SSE
Cosmos 1869 Rocket 4.4 18:52:04 10° SSE 18:55:42 27° E 18:59:24 10° NNE
Cosmos 1459 Rocket 3.9 18:49:48 10° N 18:55:51 67° ENE 19:01:53 10° SSE
CZ-4C R/B 4.1 18:52:16 10° NW 18:57:27 26° NNE 19:03:37 10° ENE
USA 305 4.2 18:55:58 10° WNW 18:59:22 31° SW 19:02:45 10° SSE
Cosmos 1725 Rocket 4.2 18:57:13 10° N 19:03:13 50° ENE 19:09:12 10° SSE
USA 307 4.4 19:00:11 10° WNW 19:03:30 28° SW 19:06:47 10° SSE
Cosmos 1633 Rocket 4.2 19:00:18 10° SSW 19:04:33 48° WNW 19:08:51 10° N
Resurs 01 Rocket 2.7 19:03:03 13° ESE 19:06:09 26° ENE 19:09:50 10° N
Cosmos 2322 3.8 19:01:51 10° NNW 19:07:33 87° WSW 19:13:13 10° SSE
CZ-4B R/B 3.7 19:02:02 10° S 19:07:41 67° WSW 19:13:19 10° NNW
Lacrosse 5 rocket 3.5 19:06:59 10° SE 19:07:26 11° SE 19:07:26 11° SE
Cosmos 1975 2.8 19:06:08 10° S 19:09:59 55° E 19:13:54 10° NNE
Cosmos 1707 3.0 19:06:52 10° NNW 19:10:40 69° W 19:14:25 10° S
Cosmos 676 Rocket 4.1 19:05:33 10° NNW 19:10:48 83° WSW 19:16:03 10° SSE
Cosmos 1452 Rocket 4.2 19:06:37 10° SSE 19:11:09 30° E 19:15:42 10° NE
SJ-6B 2.7 19:08:17 10° SSE 19:12:12 77° ENE 19:16:05 10° N
Cosmos 1805 4.0 19:10:29 10° SSE 19:13:49 30° E 19:17:11 10° NNE
Cosmos 1980 4.3 19:08:46 10° NNW 19:14:09 41° NE 19:18:13 17° ESE
Cosmos 2333 Rocket 3.4 19:09:35 10° NW 19:15:01 44° WSW 19:20:26 10° S
USA 215 3.7 19:10:11 10° ENE 19:16:37 61° NNW 19:23:01 10° W
Cosmos 2219 Rocket 2.8 19:11:40 10° NW 19:17:17 60° WSW 19:22:51 10° S
Cosmos 1802 Rocket 4.0 19:11:33 10° N 19:17:49 77° E 19:24:08 10° SSE
ISS -3.5 19:15:56 10° W 19:19:17 68° NNW 19:21:37 18° ENE
Cosmos 1703 Rocket 3.7 19:15:33 10° NNW 19:20:02 78° W 19:24:27 10° S
SL-27 R/B 2.2 19:17:27 10° SSW 19:20:45 89° WNW 19:24:01 10° NNE
IRS-1C Rocket 4.4 19:16:24 11° SE 19:21:19 49° ENE 19:26:24 10° N
IGS 5A 4.0 19:17:28 10° S 19:21:32 62° W 19:25:39 10° NNW
Cosmos 1674 3.1 19:18:05 10° NNW 19:21:47 63° W 19:25:27 10° S
CSL-04 Debris 4.1 19:19:55 10° SSE 19:25:20 84° ENE 19:30:49 10° NNW
Cosmos 1741 Rocket 4.2 19:20:34 10° NNW 19:25:43 55° ENE 19:29:30 18° SE
SL-14 R/B 3.5 19:22:32 10° N 19:26:16 45° ENE 19:28:35 20° SE
Resurs 1-3 3.5 19:21:57 10° SSE 19:26:18 80° ENE 19:30:42 10° NNW
COSMOS 2428 2.8 19:20:35 10° NNW 19:26:20 82° WSW 19:32:04 10° SSE
Spot 1 4.4 19:25:26 10° NNE 19:30:22 89° W 19:35:28 10° SSW
USA 186 1.9 19:27:18 10° S 19:30:22 70° WSW 19:33:30 10° NNW
BREEZE M DEB (TANK) 1.6 19:28:46 10° WSW 19:31:19 81° S 19:31:58 41° E
Okean-O 2.6 19:29:27 12° SSE 19:33:35 69° ENE 19:38:00 10° N
Cosmos 2016 Rocket 3.9 19:27:44 10° N 19:33:53 84° E 19:40:01 10° S
Cosmos 968 Rocket 4.3 19:30:32 10° N 19:35:12 32° NE 19:37:18 24° E
Cosmos 2297 Rocket 2.9 19:31:06 10° SSE 19:35:54 29° ESE 19:40:43 10° NE
Cosmos 2123 Rocket 3.9 19:31:25 10° S 19:37:40 78° E 19:44:01 10° NNE
Cosmos 1733 Rocket 3.9 19:38:38 27° E 19:38:56 28° E 19:42:37 10° NNE
Cosmos 1726 2.0 19:36:02 10° S 19:39:26 54° E 19:42:53 10° NNE
CZ-4 R/B 3.3 19:36:42 10° SSW 19:40:05 29° W 19:43:31 10° NNW
Cosmos 2221 Rocket 4.4 19:38:35 10° N 19:42:31 30° ENE 19:43:19 28° E
Okean O Rocket 3.1 19:39:40 10° SSW 19:43:46 37° W 19:47:53 10° NNW
NOSS 0 Rocket 3.9 19:37:32 10° NNW 19:43:47 90° E 19:48:33 18° SSE
SL-08 R/B 4.5 19:37:54 10° N 19:44:20 86° E 19:50:39 10° S
CARTOSAT-1 4.2 19:43:21 30° ESE 19:44:34 37° ENE 19:48:33 10° N
Cosmos 2242 Rocket 3.8 19:40:30 10° NNW 19:45:05 75° W 19:49:38 10° S
ERS-1 Rocket 4.4 19:45:25 19° ENE 19:46:12 20° ENE 19:49:45 10° NNE
Cosmos 1378 Rocket 4.4 19:43:54 10° N 19:47:48 30° ENE 19:48:15 29° E
Ariane Rocket 3.9 19:47:24 27° E 19:48:46 31° ENE 19:53:10 10° N
Helios 1B 4.4 19:44:55 10° NNE 19:49:17 76° ESE 19:53:36 10° S
Cosmos 2227 Rocket 3.6 19:53:55 19° ENE 19:53:55 19° ENE 19:56:06 10° NE
Cosmos 1733 3.2 19:49:49 10° SSW 19:53:35 77° WNW 19:57:22 10° N
Cosmos 1867 3.7 19:50:33 10° SSW 19:55:47 50° ESE 20:01:04 10° NE
Okean 2 3.6 19:55:21 10° NNW 19:59:24 67° W 20:02:24 17° S
SL-16 R/B 3.1 19:56:27 10° NNW 20:01:36 33° NE 20:03:15 28° E
SPOT 3 Rocket 4.4 20:03:14 30° E 20:04:03 32° ENE 20:08:39 10° N
NOSS 3-2 (A) 4.5 19:59:43 10° NW 20:07:03 60° SW 20:13:45 17° SSE
ATLAS 3B R/B 4.4 20:03:52 10° NW 20:09:55 27° N 20:16:13 10° ENE
NOSS 3-2 (C) 4.1 20:09:35 10° NW 20:17:01 82° SW 20:21:40 30° SSE
H-2A R/B 2.9 20:18:42 48° ENE 20:18:42 48° ENE 20:22:58 10° N
Meteor 2-10 4.5 20:15:19 10° SSW 20:20:16 59° WNW 20:25:19 10° N
CENTAUR R/B 3.9 20:12:30 10° NW 20:20:26 52° WSW 20:27:29 16° S
SJ 16-02 3.1 20:20:08 10° N 20:22:49 20° NE 20:22:49 20° NE
Cosmos 2233 Rocket 4.3 20:22:39 10° NNW 20:28:43 63° W 20:33:52 15° S
USA 238 DEB 3.9 20:23:13 10° NW 20:30:31 82° SW 20:33:45 39° SSE
USA 238 3.9 20:23:19 10° NW 20:30:37 83° SW 20:33:50 39° SSE
SPOT 1/Viking Rocket 4.3 20:27:33 18° S 20:31:12 51° W 20:36:17 10° NNW
Meteor 1-15 Rocket 4.3 20:31:01 52° ESE 20:31:25 53° E 20:37:07 10° NNE
Cosmos 1766 3.5 20:32:37 59° N 20:32:37 59° N 20:35:47 10° N
Meteor 2-15 4.5 20:27:51 10° N 20:33:56 60° ENE 20:35:00 52° ESE
Cosmos 2237 Rocket 2.5 20:31:43 10° NW 20:37:17 60° WSW 20:39:16 38° S
Cosmos 1110 Rocket 4.1 20:33:54 10° SSW 20:39:06 74° WNW 20:44:19 10° NNE
Terra 2.7 20:40:22 37° NE 20:40:22 37° NE 20:44:00 10° N
Meteor 1-12 Rocket 4.2 20:39:37 60° SE 20:40:12 64° E 20:45:52 10° NNE
Cosmos 2034 Rocket 4.3 20:35:08 10° N 20:41:04 44° ENE 20:41:13 44° ENE
Resurs 01 Rocket 2.8 20:40:35 26° SSW 20:42:28 40° W 20:46:39 10° NNW
Landsat 5 4.5 20:40:53 10° N 20:44:31 42° WNW 20:47:02 18° SW
Lacrosse 5 rocket 3.8 20:42:22 10° SW 20:42:54 13° SW 20:42:54 13° SW
CZ-4C R/B 3.3 20:40:52 10° NW 20:47:29 52° NE 20:49:46 40° E
ATLAS CENTAUR R/B 4.1 20:32:35 10° SW 20:48:18 88° NW 20:54:48 14° NE
MetOp-B 4.2 20:50:58 56° SSW 20:52:02 73° WSW 20:57:25 10° NNW
SPOT 5 2.9 20:53:49 66° NNE 20:53:49 66° NNE 20:58:04 10° NNW
MetOp-A 4.5 20:52:25 43° SSW 20:53:53 58° W 20:59:03 10° NNW
Meteor 1-24 Rocket 3.7 20:50:05 10° N 20:56:01 77° ENE 20:56:26 73° ESE
ISS -1.5 20:52:57 10° WNW 20:54:34 25° WNW 20:54:34 25° WNW
Cosmos 1072 Rocket 4.4 20:50:23 10° N 20:56:51 84° E 20:57:57 64° SSE
Cosmos 1331 Rocket 4.5 20:52:02 10° SW 20:57:07 58° WNW 21:02:14 10° NNE
FALCON 9 R/B 4.1 20:42:11 10° WSW 20:57:15 32° SSW 20:58:48 30° S
USA 215 4.0 20:55:21 23° ENE 20:59:05 46° N 21:05:16 10° WNW
ADEOS Rocket 3.0 21:05:22 68° ESE 21:05:57 72° ENE 21:12:55 10° NNW
Cosmos 1943 4.3 21:04:35 10° NNW 21:09:15 32° NE 21:09:15 32° NE
Cosmos 968 Rocket 4.3 21:12:14 10° NW 21:17:06 43° WSW 21:17:18 42° WSW
Meteor 2-5 Rocket 3.9 21:13:31 10° NNW 21:19:17 68° W 21:19:35 67° WSW
Cosmos 2297 Rocket 2.8 21:14:09 10° SW 21:19:40 54° NW 21:25:13 10° NNE
ERS-1 Rocket 3.5 21:25:22 58° NW 21:25:22 58° NW 21:29:31 10° NNW
Cosmos 2219 4.3 21:28:49 34° NNE 21:28:49 34° NNE 21:31:54 10° NNE
Cosmos 1464 Rocket 4.2 21:20:08 10° NNW 21:26:26 67° W 21:27:08 62° SW
Ariane Rocket 3.9 21:27:34 43° W 21:27:34 43° W 21:32:25 10° NNW
Cosmos 2227 Rocket 2.5 21:35:33 62° NW 21:35:33 62° NW 21:40:52 10° NNE
Spot 2 Rocket 4.3 21:39:21 48° WNW 21:39:21 48° WNW 21:43:28 10° NNW
SL-16 R/B 2.9 21:40:27 10° NW 21:45:08 48° W 21:45:08 48° W
SJ 16-02 3.6 21:57:58 10° NNW 21:59:43 23° NW 21:59:43 23° NW
ATLAS 3B R/B 3.6 21:55:34 10° NW 22:02:39 43° NNE 22:03:35 41° NE
Cosmos 1634 Rocket 4.5 22:02:41 10° N 22:07:35 56° NNW 22:07:35 56° NNW
Terra 3.9 22:19:07 22° WNW 22:19:07 22° WNW 22:21:26 10° NW
Cosmos 2263 Rocket 4.2 22:30:25 20° NNE 22:30:25 20° NNE 22:32:04 10° NNE
CZ-4C R/B 3.5 22:29:17 10° NW 22:34:56 51° W 22:34:56 51° W
USA 215 3.8 22:42:40 54° NNW 22:42:40 54° NNW 22:48:00 10° WNW
ATLAS CENTAUR R/B 4.0 22:53:40 10° W 23:03:57 46° NNW 23:04:24 45° N
ATLAS 2AS CENTAUR R/B 4.2 23:13:02 30° NE 23:13:02 30° NE 23:16:24 10° NE
Cosmos 2344 4.1 23:21:15 10° NW 23:28:51 75° WNW 23:28:51 75° WNW
